Flag for U.S.A. Weather past 2 weeks in Fresno, California, U.S.A.

Now
97 °F

Mostly cloudy.


Feels Like: 93 °F
Forecast: 78 / 103 °F
Wind: No wind

Location: Fresno Air Terminal

Current Time: Jul 28, 2014 at 6:26:41 PM

Latest Report: Jul 28, 2014 at 5:53 PM


Visibility: 10 mi

Pressure: 29.94 "Hg

Humidity: 15%

Dew point: 42 °F

Location of FresnoLocation

Historic Weather in Fresno — Graph

°F

Fresno temperature yesterday

Maximum temperature yesterday: 107 °F (at 4:53 PM)
Minimum temperature yesterday: 78 °F (at 5:53 AM)
Average temperature yesterday: 92 °F

Past Weeks' High & Low Weather Summary

 TemperatureHumidityPressure
High107 °F (Jul 27, 4:53 PM)68% (Jul 23, 6:53 AM)30.11 "Hg (Jul 23, 6:53 AM)
Low67 °F (Jul 23, 6:53 AM)11% (Jul 26, 2:53 PM)29.76 "Hg (Jul 25, 5:53 PM)
Average86 °F37%29.89 "Hg
* Reported Jul 13 4:53 PM — Jul 28 4:53 PM, Fresno, Weather by CustomWeather, © 2014

Note: Actual official high and low records may vary slightly from our data, if they occured in-between our weather recording intervals... More about our weather records

Advertising

Fresno weather history for previous 24 hours

 ConditionsComfort  
Time TempWeatherWind HumidityBarometerVisibility
4:53 PM
Jul 28
97 °FPartly sunny.3 mph16%29.96 "Hg10 mi
3:53 PM97 °FMostly cloudy.5 mph15%29.98 "Hg10 mi
2:53 PM97 °FMostly cloudy.5 mph15%29.98 "Hg10 mi
1:53 PM96 °FMostly cloudy.5 mph14%29.98 "Hg10 mi
12:53 PM95 °FMostly cloudy.5 mph14%29.99 "Hg10 mi
11:53 AM91 °FMostly cloudy.5 mph17%30.00 "Hg10 mi
10:53 AM88 °FCloudy.6 mph28%30.00 "Hg10 mi
9:53 AM87 °FMostly cloudy.7 mph31%30.00 "Hg10 mi
8:53 AM85 °FMore clouds than sun.5 mph29%29.99 "Hg10 mi
7:53 AM79 °FBroken clouds.7 mph41%29.98 "Hg10 mi
6:53 AM80 °FOvercast.5 mph35%29.96 "Hg10 mi
5:53 AM81 °FOvercast.5 mph29%29.94 "Hg10 mi
4:53 AM80 °FMostly cloudy.3 mph31%29.92 "Hg10 mi
3:53 AM80 °FMostly cloudy.5 mph32%29.90 "Hg10 mi
2:53 AM81 °FPartly cloudy.8 mph32%29.89 "Hg10 mi
1:53 AM82 °FPartly cloudy.6 mph31%29.90 "Hg10 mi
12:53 AM84 °FPassing clouds.13 mph29%29.89 "Hg10 mi
11:53 PM
Jul 27
87 °FPassing clouds.14 mph28%29.90 "Hg10 mi
10:53 PM90 °FPassing clouds.13 mph24%29.88 "Hg10 mi
9:53 PM92 °FPassing clouds.12 mph23%29.87 "Hg10 mi
8:53 PM95 °FScattered clouds.12 mph20%29.85 "Hg10 mi
7:53 PM99 °FBroken clouds.15 mph16%29.83 "Hg10 mi
6:53 PM104 °FScattered clouds.14 mph13%29.81 "Hg10 mi
Weather by CustomWeather, © 2014

See weather overviewHow to use our weather pages